* Astronomy

Members Login
Username 
 
Password 
    Remember Me  
Post Info TOPIC: Asteroid 2012 BA14


L

Posts: 131433
Date:
Asteroid 2012 BA14
Permalink  
 


Orbital elements:
2012 BA14                                                Earth MOID = 0.0398 AU
Epoch 2012 Mar. 14.0 TT = JDT 2456000.5                 MPC
M  29.47362              (2000.0)            P               Q
n   0.34687871     Peri.  139.11211     +0.15057636     -0.97520046
a   2.0060925      Node   301.63548     +0.85016945     +0.21147139
e   0.5227948      Incl.   10.98292     +0.50451825     -0.06529869
P   2.84           H   24.7           G   0.15           U   7

MPEC 2012 - B37



__________________
Page 1 of 1  sorted by
 
Quick Reply

Please log in to post quick replies.



Create your own FREE Forum
Report Abuse
Powered by ActiveBoard